{"data":{"norad_id":56905,"intl_designator":"2023-083AF","name":"STARLINK-6183","alt_names":[],"object_type":"PAYLOAD","status":"ACTIVE","operator":null,"country":"US","launch_date":"2023-06-12","launch_site_code":"AFETR","launch_vehicle":null,"mission":null,"orbit_class":"UNKNOWN","rcs_meters":null,"size_class":null,"mass_kg":null,"dimensions":null,"purposes":["comms"],"wikipedia_slug":null,"has_3d_model":false,"image_url":null,"decayed_at":null,"tle_current":{"epoch":"2026-09-19T18:19:54.486048Z","epoch_age_seconds":181230,"freshness":"STALE","line1":"1 56905U 23083AF  26262.76382507 -.00000051  00000+0  76728-5 0  9998","line2":"2 56905  43.0035  54.2884 0001779 268.0652  91.9996 15.27577270181484","mean_motion":15.2757727,"eccentricity":0.0001779,"inclination_deg":43.0035,"raan_deg":54.2884,"arg_perigee_deg":268.0652,"mean_anomaly_deg":91.9996,"bstar":7.6728e-6,"rev_number":18148,"period_min":94.266917181872,"perigee_km":481.83666419319,"apogee_km":484.27787711469,"semimajor_km":6861.1942706539,"source":"CELESTRAK","updated_at":"2026-09-21T09:00:33.525558Z"}}}